Location: New Canada
(47.1017°N, 68.5042°W)
Time: 17:08:31
(UTC+00:00)

RS-44 - Pass Details

Date: 24 April 2024
Orbit: 1174 x 1511 km, 82.5° (Epoch: 20 May)

Event Time Altitude Azimuth Distance (km) Brightness Sun altitude
Rises 02:15:21 0° 241° (WSW) 4,617 ? -22.6°
Reaches altitude 10° 02:19:21 10° 257° (WSW) 3,608 ? -23.0°
Maximum altitude 02:25:24 20° 302° (WNW) 2,817 ? -23.6°
Drops below altitude 10° 02:31:15 10° 347° (NNW) 3,464 ? -24.1°
Sets 02:35:02 0° 4° (N) 4,381 ? -24.4°
